• In Uzbekistan
  • List of Countries
  • For 7 days
  • Water Temperature
  • Satellite Maps
  • Weather Map
  • Weather Widgets
  • user-avatar
    Login

    Hourly Weather Asadabad

    Today, 19 July, Friday

    Time Temperature Precipitation Wind Pressure Humidity
    00:00 +26°C° 0.2 mm 1 mps 655 mmHg 78%
    01:00 +26°C° 0.2 mm 1 mps 654 mmHg 79%
    02:00 +24°C° 0.2 mm 0 mps 654 mmHg 80%
    03:00 +23°C° 0 mm 0 mps 654 mmHg 80%
    04:00 +23°C° 0 mm 0 mps 654 mmHg 81%
    05:00 +23°C° 0 mm 0 mps 654 mmHg 84%
    06:00 +23°C° 0 mm 0 mps 654 mmHg 78%
    07:00 +24°C° 0 mm 0 mps 655 mmHg 73%
    08:00 +27°C° 0 mm 1 mps 655 mmHg 67%
    09:00 +28°C° 0 mm 1 mps 655 mmHg 63%
    10:00 +29°C° 0 mm 2 mps 655 mmHg 60%
    11:00 +30°C° 0 mm 2 mps 655 mmHg 56%
    12:00 +31°C° 0.1 mm 2 mps 655 mmHg 53%
    13:00 +33°C° 0.1 mm 3 mps 655 mmHg 49%
    14:00 +34°C° 0.1 mm 3 mps 655 mmHg 46%
    15:00 +34°C° 0.2 mm 3 mps 655 mmHg 47%
    16:00 +34°C° 0.2 mm 3 mps 655 mmHg 48%
    17:00 +33°C° 0.2 mm 3 mps 654 mmHg 49%
    18:00 +32°C° 0.4 mm 2 mps 655 mmHg 53%
    19:00 +31°C° 0.4 mm 2 mps 655 mmHg 57%
    20:00 +30°C° 0.4 mm 1 mps 655 mmHg 61%
    21:00 +29°C° 0.2 mm 1 mps 655 mmHg 63%
    22:00 +29°C° 0.2 mm 1 mps 655 mmHg 64%
    23:00 +28°C° 0.2 mm 1 mps 655 mmHg 66%

    Tomorrow, 20 July, Saturday

    Time Temperature Precipitation Wind Pressure Humidity
    00:00 +28°C° 0.2 mm 1 mps 655 mmHg 67%
    01:00 +26°C° 0.2 mm 0 mps 655 mmHg 68%
    02:00 +26°C° 0.2 mm 0 mps 655 mmHg 69%
    03:00 +25°C° 0 mm 0 mps 655 mmHg 70%
    04:00 +27°C° 0 mm 1 mps 655 mmHg 71%
    05:00 +27°C° 0 mm 1 mps 655 mmHg 72%
    06:00 +28°C° 0 mm 1 mps 655 mmHg 67%
    07:00 +28°C° 0 mm 1 mps 656 mmHg 63%
    08:00 +29°C° 0 mm 1 mps 656 mmHg 59%
    09:00 +30°C° 0 mm 1 mps 656 mmHg 56%
    10:00 +31°C° 0 mm 2 mps 656 mmHg 54%
    11:00 +32°C° 0 mm 2 mps 657 mmHg 51%
    12:00 +34°C° 0 mm 2 mps 656 mmHg 49%
    13:00 +34°C° 0 mm 2 mps 656 mmHg 47%
    14:00 +35°C° 0 mm 3 mps 656 mmHg 46%
    15:00 +35°C° 0 mm 3 mps 656 mmHg 45%
    16:00 +35°C° 0 mm 3 mps 656 mmHg 44%
    17:00 +35°C° 0 mm 3 mps 656 mmHg 44%
    18:00 +34°C° 0.2 mm 2 mps 656 mmHg 48%
    19:00 +32°C° 0.2 mm 2 mps 656 mmHg 52%
    20:00 +31°C° 0.2 mm 1 mps 655 mmHg 56%
    21:00 +31°C° 0.3 mm 1 mps 655 mmHg 59%
    22:00 +30°C° 0.3 mm 1 mps 655 mmHg 62%
    23:00 +29°C° 0.3 mm 1 mps 655 mmHg 65%

    Day after tomorrow, 21 July, Sunday

    Time Temperature Precipitation Wind Pressure Humidity
    00:00 +29°C° 0 mm 1 mps 655 mmHg 66%
    01:00 +29°C° 0 mm 1 mps 655 mmHg 67%
    02:00 +26°C° 0 mm 0 mps 655 mmHg 68%
    03:00 +28°C° 0 mm 1 mps 655 mmHg 67%
    04:00 +28°C° 0 mm 1 mps 655 mmHg 67%
    05:00 +27°C° 0 mm 1 mps 655 mmHg 67%
    06:00 +28°C° 0 mm 1 mps 655 mmHg 63%
    07:00 +27°C° 0 mm 0 mps 656 mmHg 59%
    08:00 +28°C° 0 mm 0 mps 656 mmHg 54%
    09:00 +31°C° 0 mm 1 mps 656 mmHg 51%
    10:00 +32°C° 0 mm 2 mps 656 mmHg 48%
    11:00 +35°C° 0 mm 2 mps 656 mmHg 45%
    12:00 +35°C° 0 mm 3 mps 656 mmHg 43%
    13:00 +36°C° 0 mm 3 mps 656 mmHg 42%
    14:00 +37°C° 0 mm 4 mps 656 mmHg 40%
    15:00 +37°C° 0.1 mm 3 mps 655 mmHg 41%
    16:00 +36°C° 0.1 mm 3 mps 655 mmHg 41%
    17:00 +36°C° 0.1 mm 3 mps 655 mmHg 42%
    18:00 +35°C° 0.5 mm 2 mps 655 mmHg 47%
    19:00 +34°C° 0.5 mm 2 mps 655 mmHg 52%
    20:00 +32°C° 0.5 mm 1 mps 655 mmHg 58%
    21:00 +31°C° 0.4 mm 1 mps 655 mmHg 60%
    22:00 +30°C° 0.4 mm 1 mps 655 mmHg 62%
    23:00 +30°C° 0.4 mm 1 mps 655 mmHg 64%

    22 July, Monday

    Time Temperature Precipitation Wind Pressure Humidity
    00:00 +29°C° 0.1 mm 1 mps 655 mmHg 64%
    01:00 +29°C° 0.1 mm 1 mps 654 mmHg 64%
    02:00 +29°C° 0.1 mm 1 mps 654 mmHg 65%
    03:00 +28°C° 0 mm 1 mps 654 mmHg 62%
    04:00 +28°C° 0 mm 1 mps 654 mmHg 60%
    05:00 +28°C° 0 mm 1 mps 654 mmHg 57%
    06:00 +29°C° 0 mm 1 mps 654 mmHg 52%
    07:00 +30°C° 0 mm 1 mps 655 mmHg 47%
    08:00 +29°C° 0 mm 0 mps 655 mmHg 42%
    09:00 +32°C° 0 mm 1 mps 655 mmHg 40%
    10:00 +33°C° 0 mm 1 mps 655 mmHg 39%
    11:00 +36°C° 0 mm 2 mps 655 mmHg 37%
    12:00 +36°C° 0 mm 3 mps 655 mmHg 35%
    13:00 +37°C° 0 mm 3 mps 655 mmHg 33%
    14:00 +38°C° 0 mm 3 mps 655 mmHg 31%
    15:00 +38°C° 0 mm 3 mps 655 mmHg 32%
    16:00 +38°C° 0 mm 3 mps 654 mmHg 32%
    17:00 +38°C° 0 mm 3 mps 654 mmHg 33%
    18:00 +37°C° 0 mm 3 mps 654 mmHg 38%
    19:00 +35°C° 0 mm 2 mps 654 mmHg 42%
    20:00 +33°C° 0 mm 1 mps 654 mmHg 46%
    21:00 +32°C° 0 mm 1 mps 654 mmHg 50%
    22:00 +31°C° 0 mm 1 mps 654 mmHg 53%
    23:00 +29°C° 0 mm 0 mps 654 mmHg 57%

    23 July, Tuesday

    Time Temperature Precipitation Wind Pressure Humidity
    00:00 +28°C° 0 mm 0 mps 654 mmHg 56%
    01:00 +30°C° 0 mm 1 mps 654 mmHg 56%
    02:00 +29°C° 0 mm 1 mps 653 mmHg 56%
    03:00 +29°C° 0 mm 1 mps 653 mmHg 55%
    04:00 +29°C° 0 mm 1 mps 653 mmHg 55%
    05:00 +26°C° 0 mm 0 mps 653 mmHg 55%
    06:00 +27°C° 0 mm 0 mps 654 mmHg 51%
    07:00 +28°C° 0 mm 0 mps 654 mmHg 48%
    08:00 +30°C° 0 mm 0 mps 655 mmHg 44%
    09:00 +33°C° 0 mm 1 mps 655 mmHg 42%
    10:00 +35°C° 0 mm 2 mps 655 mmHg 40%
    11:00 +36°C° 0 mm 2 mps 655 mmHg 38%
    12:00 +37°C° 0 mm 2 mps 655 mmHg 36%
    13:00 +38°C° 0 mm 3 mps 654 mmHg 34%
    14:00 +38°C° 0 mm 3 mps 654 mmHg 31%
    15:00 +38°C° 0 mm 3 mps 654 mmHg 31%
    16:00 +39°C° 0 mm 3 mps 654 mmHg 31%
    17:00 +39°C° 0 mm 3 mps 653 mmHg 30%
    18:00 +37°C° 0 mm 2 mps 653 mmHg 34%
    19:00 +36°C° 0 mm 2 mps 653 mmHg 37%
    20:00 +34°C° 0 mm 1 mps 653 mmHg 41%
    21:00 +33°C° 0 mm 1 mps 653 mmHg 45%
    22:00 +32°C° 0 mm 1 mps 653 mmHg 48%
    23:00 +29°C° 0 mm 0 mps 653 mmHg 52%

    24 July, Wednesday

    Time Temperature Precipitation Wind Pressure Humidity
    00:00 +29°C° 0 mm 0 mps 653 mmHg 53%
    01:00 +30°C° 0 mm 1 mps 653 mmHg 53%
    02:00 +30°C° 0 mm 1 mps 653 mmHg 54%
    03:00 +30°C° 0 mm 1 mps 653 mmHg 54%
    04:00 +29°C° 0 mm 1 mps 653 mmHg 55%
    05:00 +29°C° 0 mm 1 mps 653 mmHg 55%
    06:00 +30°C° 0 mm 1 mps 653 mmHg 51%
    07:00 +29°C° 0 mm 0 mps 654 mmHg 47%
    08:00 +31°C° 0 mm 0 mps 654 mmHg 43%
    09:00 +34°C° 0 mm 1 mps 654 mmHg 40%
    10:00 +36°C° 0 mm 2 mps 654 mmHg 37%
    11:00 +37°C° 0 mm 2 mps 654 mmHg 34%
    12:00 +38°C° 0 mm 2 mps 654 mmHg 32%
    13:00 +38°C° 0 mm 3 mps 654 mmHg 30%
    14:00 +39°C° 0 mm 3 mps 654 mmHg 28%
    15:00 +39°C° 0 mm 3 mps 653 mmHg 26%
    16:00 +40°C° 0 mm 3 mps 653 mmHg 25%
    17:00 +40°C° 0 mm 3 mps 653 mmHg 24%
    18:00 +38°C° 0 mm 2 mps 653 mmHg 27%
    19:00 +37°C° 0 mm 2 mps 653 mmHg 31%
    20:00 +35°C° 0 mm 2 mps 653 mmHg 34%
    21:00 +33°C° 0 mm 1 mps 653 mmHg 38%
    22:00 +33°C° 0 mm 1 mps 653 mmHg 42%
    23:00 +32°C° 0 mm 1 mps 654 mmHg 45%
    Show more